User: anonymous   Login
Location: Asheville, NC
(35.6000°N, 82.5500°W)
Time: 23:04:56
(UTC-04:00)
Language:

BEESAT - Orbit

View from above orbital plane
View from above orbital plane
View from above satellite
View from above satellite

Ground track
Ground track

The orbit data is extracted from the following two-line orbital elements,

1 35933U 09051C   18113.56504394 +.00000147 +00000-0 +44094-4 0  9995
2 35933 098.5413 264.9494 0006505 041.6151 318.5540 14.56251680455511
Epoch (UTC): 23 April 2018 13:33:39
Eccentricity: 0.0006505
inclination: 98.5413°
perigee height: 700 km
apogee height: 710 km
right ascension of ascending node: 264.9494°
argument of perigee: 41.6151°
revolutions per day: 14.56251680
mean anomaly at epoch: 318.5540°
orbit number at epoch: 45551

The dashed part of the orbit path shows where the satellite is in the earth's shadow,  

DLR